Weather History for PAPG - June, 2013

Change the Weather History Date:

Sunday, June 16, 2013

  Actual Average Record
Temperature  
Mean Temperature 64 °F -  
Max Temperature 77 °F 58 °F 77 °F (2013)
Min Temperature 51 °F 45 °F 35 °F (1985)
Degree Days  
Heating Degree Days 1    
Growing Degree Days 14 (Base 50)    
Moisture  
Dew Point 46 °F    
Average Humidity 50    
Maximum Humidity 77    
Minimum Humidity 32    
Precipitation  
Precipitation 0.00 in - - ()
Sea Level Pressure  
Sea Level Pressure 30.05 in    
Wind  
Wind Speed 4 mph (ENE)    
Max Wind Speed 10 mph    
Max Gust Speed 16 mph    
Visibility 10 miles    
Events      
Averages and records for this station are not official NWS values.
T = Trace of Precipitation, MM = Missing Value Source: NWS Daily Summary

Daily Weather History Graph

Daily Weather History Graph

Search for Another Location

Airport or City:

Trip Planner

Search our weather history database for the weather conditions in past years. The results will help you decide how hot, cold, wet, or windy it might be!

Date:

Astronomy

Jun. 16, 2013 Rise Set
Actual Time 3:58 AM AKDT 9:47 PM AKDT
Civil Twilight 2:51 AM AKDT 10:54 PM AKDT
Nautical Twilight 1:25 AM AKDT 12:20 AM AKDT
Astronomical Twilight Sun does not set Sun does not set
Moon 1:13 PM AKDT (6/16) 12:30 AM AKDT (6/16)
Length of Visible Light 20h 02m
Length of Day
17h 49m
Waxing Crescent, 51% of the Moon is Illuminated
Jun 16
Waxing Crescent
Jun 23
Full
Jun 29
Last Quarter
Jul 7
New
Jul 15
First Quarter

Hourly Weather History & Observations

Time (AKDT) Temp. Dew Point Humidity Pressure Visibility Wind Dir Wind Speed Gust Speed Precip Events Conditions
12:16 AM 60.8 °F 44.6 °F 55% 30.08 in 10.0 mi East 3.5 mph - N/A   Clear
12:36 AM 57.2 °F 46.4 °F 67% 30.08 in 10.0 mi Calm Calm - N/A   Clear
12:56 AM 55.4 °F 46.4 °F 72% 30.08 in 10.0 mi Calm Calm - N/A   Clear
1:16 AM 55.4 °F 46.4 °F 72% 30.08 in 10.0 mi Calm Calm - N/A   Clear
1:36 AM 55.4 °F 46.4 °F 72% 30.08 in 10.0 mi Calm Calm - N/A   Clear
1:56 AM 55.4 °F 46.4 °F 72% 30.08 in 10.0 mi Calm Calm - N/A   Clear
2:16 AM 55.4 °F 46.4 °F 72% 30.08 in 10.0 mi Calm Calm - N/A   Clear
2:36 AM 55.4 °F 46.4 °F 72% 30.09 in 10.0 mi East 4.6 mph - N/A   Clear
2:56 AM 55.4 °F 46.4 °F 72% 30.08 in 10.0 mi East 4.6 mph - N/A   Clear
3:16 AM 53.6 °F 46.4 °F 77% 30.09 in 10.0 mi Calm Calm - N/A   Clear
3:36 AM 53.6 °F 44.6 °F 72% 30.08 in 10.0 mi Calm Calm - N/A   Clear
3:56 AM 51.8 °F 44.6 °F 76% 30.08 in 10.0 mi Calm Calm - N/A   Clear
4:16 AM 55.4 °F 46.4 °F 72% 30.08 in 10.0 mi Calm Calm - N/A   Clear
4:36 AM 51.8 °F 44.6 °F 76% 30.08 in 10.0 mi Calm Calm - N/A   Clear
4:56 AM 51.8 °F 44.6 °F 76% 30.08 in 10.0 mi WSW 4.6 mph - N/A   Clear
5:16 AM 53.6 °F 46.4 °F 77% 30.09 in 10.0 mi Calm Calm - N/A   Clear
5:36 AM 55.4 °F 48.2 °F 77% 30.09 in 10.0 mi ENE 3.5 mph - N/A   Clear
5:52 AM 55.4 °F 48.2 °F 77% 30.09 in 10.0 mi Calm Calm - N/A   Clear
6:46 AM 57.2 °F 50.0 °F 77% 30.09 in 10.0 mi Calm Calm - N/A   Clear
7:36 AM 62.6 °F 44.6 °F 52% 30.09 in 10.0 mi ENE 4.6 mph - N/A   Clear
7:47 AM 62.6 °F 44.6 °F 52% 30.09 in 10.0 mi NE 3.5 mph - N/A   Partly Cloudy
8:16 AM 64.4 °F 44.6 °F 49% 30.09 in 10.0 mi NE 4.6 mph - N/A   Partly Cloudy
8:56 AM 64.4 °F 44.6 °F 49% 30.09 in 10.0 mi ENE 5.8 mph - N/A   Partly Cloudy
9:16 AM 64.4 °F 44.6 °F 49% 30.09 in 10.0 mi ENE 4.6 mph - N/A   Partly Cloudy
9:36 AM 66.2 °F 46.4 °F 49% 30.09 in 10.0 mi NE 4.6 mph - N/A   Partly Cloudy
9:56 AM 66.2 °F 46.4 °F 49% 30.09 in 10.0 mi East 4.6 mph - N/A   Partly Cloudy
10:16 AM 66.2 °F 44.6 °F 46% 30.09 in 10.0 mi NE 6.9 mph - N/A   Partly Cloudy
10:36 AM 69.8 °F 46.4 °F 43% 30.08 in 10.0 mi ENE 4.6 mph - N/A   Partly Cloudy
10:56 AM 68.0 °F 44.6 °F 43% 30.08 in 10.0 mi ENE 5.8 mph - N/A   Clear
11:16 AM 71.6 °F 46.4 °F 41% 30.08 in 10.0 mi ENE 6.9 mph - N/A   Clear
11:36 AM 69.8 °F 48.2 °F 46% 30.08 in 10.0 mi ENE 6.9 mph - N/A   Clear
11:56 AM 69.8 °F 48.2 °F 46% 30.08 in 10.0 mi ENE 8.1 mph - N/A   Clear
12:16 PM 69.8 °F 48.2 °F 46% 30.07 in 10.0 mi NE 5.8 mph - N/A   Clear
12:36 PM 71.6 °F 46.4 °F 41% 30.07 in 10.0 mi ENE 5.8 mph - N/A   Clear
12:56 PM 71.6 °F 46.4 °F 41% 30.06 in 10.0 mi ENE 5.8 mph - N/A   Partly Cloudy
1:16 PM 71.6 °F 46.4 °F 41% 30.06 in 10.0 mi NE 6.9 mph - N/A   Partly Cloudy
1:36 PM 73.4 °F 48.2 °F 41% 30.06 in 10.0 mi NE 5.8 mph - N/A   Partly Cloudy
1:56 PM 73.4 °F 48.2 °F 41% 30.06 in 10.0 mi NE 6.9 mph - N/A   Partly Cloudy
2:16 PM 73.4 °F 48.2 °F 41% 30.05 in 10.0 mi ENE 8.1 mph - N/A   Partly Cloudy
2:36 PM 73.4 °F 46.4 °F 38% 30.05 in 10.0 mi ENE 6.9 mph - N/A   Partly Cloudy
2:56 PM 73.4 °F 46.4 °F 38% 30.05 in 10.0 mi ENE 6.9 mph - N/A   Partly Cloudy
3:16 PM 75.2 °F 48.2 °F 38% 30.04 in 10.0 mi NE 9.2 mph - N/A   Partly Cloudy
3:36 PM 75.2 °F 46.4 °F 36% 30.04 in 10.0 mi ENE 8.1 mph - N/A   Partly Cloudy
3:56 PM 75.2 °F 46.4 °F 36% 30.04 in 10.0 mi ENE 6.9 mph - N/A   Partly Cloudy
4:16 PM 75.2 °F 46.4 °F 36% 30.04 in 10.0 mi ENE 5.8 mph - N/A   Partly Cloudy
4:36 PM 75.2 °F 44.6 °F 34% 30.03 in 10.0 mi ENE 9.2 mph 16.1 mph N/A   Partly Cloudy
4:56 PM 77.0 °F 44.6 °F 32% 30.03 in 10.0 mi ENE 5.8 mph - N/A   Partly Cloudy
5:16 PM 77.0 °F 44.6 °F 32% 30.03 in 10.0 mi East 6.9 mph - N/A   Partly Cloudy
5:36 PM 75.2 °F 44.6 °F 34% 30.02 in 10.0 mi East 6.9 mph - N/A   Partly Cloudy
5:56 PM 77.0 °F 44.6 °F 32% 30.02 in 10.0 mi East 5.8 mph - N/A   Partly Cloudy
6:16 PM 77.0 °F 44.6 °F 32% 30.02 in 10.0 mi East 6.9 mph - N/A   Partly Cloudy
6:36 PM 77.0 °F 44.6 °F 32% 30.01 in 10.0 mi NE 5.8 mph - N/A   Partly Cloudy
6:56 PM 75.2 °F 44.6 °F 34% 30.01 in 10.0 mi East 5.8 mph - N/A   Partly Cloudy
7:16 PM 73.4 °F 44.6 °F 36% 30.01 in 10.0 mi ENE 8.1 mph - N/A   Partly Cloudy
7:36 PM 73.4 °F 44.6 °F 36% 30.01 in 10.0 mi East 6.9 mph - N/A   Partly Cloudy
7:56 PM 73.4 °F 44.6 °F 36% 30.01 in 10.0 mi ENE 5.8 mph - N/A   Partly Cloudy
8:16 PM 71.6 °F 42.8 °F 35% 30.01 in 10.0 mi East 5.8 mph - N/A   Partly Cloudy
8:56 PM 69.8 °F 42.8 °F 38% 30.01 in 10.0 mi ESE 6.9 mph - N/A   Partly Cloudy
9:16 PM 68.0 °F 42.8 °F 40% 30.01 in 10.0 mi SE 9.2 mph - N/A   Partly Cloudy
9:36 PM 69.8 °F 42.8 °F 38% 30.00 in 10.0 mi ESE 6.9 mph - N/A   Partly Cloudy
9:56 PM 68.0 °F 42.8 °F 40% 30.00 in 10.0 mi East 4.6 mph - N/A   Partly Cloudy
10:16 PM 64.4 °F 44.6 °F 49% 30.00 in 10.0 mi Calm Calm - N/A   Clear
10:36 PM 64.4 °F 44.6 °F 49% 30.00 in 10.0 mi ESE 9.2 mph - N/A   Clear
10:56 PM 64.4 °F 44.6 °F 49% 30.00 in 10.0 mi ESE 10.4 mph - N/A   Clear
11:16 PM 64.4 °F 42.8 °F 45% 30.00 in 10.0 mi ESE 9.2 mph - N/A   Clear
11:36 PM 62.6 °F 44.6 °F 52% 30.00 in 10.0 mi SE 9.2 mph - N/A   Clear